Lapse_Rate
6.0 5.7 5.4 5.8 6.1 6.1 6.2 6.2 6.2 6.1 6.1 5.8 6.1 6.1 6.0 6.2 6.3 6.3 6.4 6.4 6.3 6.3 6.2 6.0 6.0 6.0 5.9 5.7 5.7 5.8 6.1 6.1 5.5 5.4 5.6 5.2 5.2 5.3 5.2 5.5 5.5 5.6 5.6
6.0 6.1 5.7 5.4 5.8 6.2 6.1 6.3 6.2 6.0 6.0 6.0 6.1 6.2 6.1 6.1 6.1 6.2 6.2 6.0 6.0 6.1 6.1 6.3 6.3 6.1 5.9 5.9 6.0 5.9 6.1 5.9 5.7 5.6 5.4 5.4 5.2 5.2 5.3 5.3 5.7 5.6 5.6
5.8 6.1 6.3 5.6 5.7 5.8 6.1 6.2 6.2 6.1 6.0 5.9 6.1 5.9 6.1 6.2 6.0 6.1 6.2 6.1 5.9 5.8 6.0 6.2 6.3 6.3 6.4 6.2 6.2 6.2 6.3 5.9 5.7 5.8 5.7 5.4 5.3 5.4 5.5 5.5 5.5 5.3 5.6
5.5 6.1 6.3 6.3 5.8 5.7 5.9 6.1 6.1 6.1 5.9 5.9 5.9 6.0 5.9 6.1 6.1 6.0 5.9 6.1 6.0 5.9 6.0 6.3 6.4 6.2 6.2 6.1 6.0 5.9 6.0 5.9 5.6 5.6 5.8 5.7 5.6 5.4 5.4 5.5 5.5 5.5 5.5
5.3 6.4 6.4 6.0 6.0 5.8 5.9 6.0 6.0 6.0 5.9 5.9 5.9 6.0 6.1 6.1 5.9 5.9 5.9 5.9 5.8 5.9 5.9 5.9 6.0 5.6 5.9 5.7 5.6 5.6 5.6 5.7 5.7 5.7 5.6 5.5 5.4 5.6 5.8 5.8 5.6 5.5 5.8
4.8 5.5 5.7 6.1 6.0 5.7 5.9 6.1 5.9 5.9 5.9 5.9 5.8 5.9 5.9 6.0 5.9 5.9 5.9 5.7 5.6 5.7 5.9 5.7 5.6 5.6 5.6 5.6 5.6 5.5 5.5 5.4 5.5 5.6 5.7 5.8 5.9 5.8 5.9 6.0 5.8 5.7 5.8
5.3 5.3 5.5 5.3 5.5 5.7 5.7 5.7 6.0 5.9 5.7 5.7 5.8 5.8 5.8 5.7 5.7 5.5 5.8 5.9 5.6 5.5 5.7 5.7 5.6 5.6 5.7 5.7 5.6 5.6 5.6 5.5 5.6 5.6 5.6 5.7 5.8 6.0 5.9 5.8 5.9 5.9 6.2
5.4 5.0 5.3 5.1 5.5 5.6 5.4 5.5 5.6 5.8 5.7 5.7 5.7 5.8 5.8 5.6 5.6 5.5 5.5 5.6 5.5 5.2 5.2 5.5 5.7 5.8 5.7 5.7 5.6 5.6 5.6 5.6 5.7 5.9 5.8 5.7 5.8 5.8 5.8 5.9 5.8 5.7 5.9
5.6 5.3 5.2 5.2 5.6 5.5 5.5 5.3 5.3 5.4 5.5 5.3 5.3 5.3 5.7 5.5 5.6 5.5 5.5 5.5 5.5 5.4 5.3 5.7 5.9 5.8 5.8 5.7 5.6 5.6 5.5 5.5 5.5 5.5 5.6 5.5 5.5 5.6 5.6 5.7 5.7 5.7 5.4
5.8 5.7 5.6 5.6 5.6 5.7 5.7 5.8 5.9 5.9 5.5 5.2 5.1 5.0 5.2 5.3 5.2 5.4 5.5 5.5 5.6 5.6 5.7 5.8 5.6 5.7 5.6 5.7 5.7 5.7 5.5 5.4 5.4 5.5 5.8 5.9 5.9 5.5 5.4 5.3 5.1 5.1 5.1
6.7 6.6 6.0 5.7 5.9 6.0 6.2 6.1 6.0 5.6 5.6 5.6 5.2 5.0 4.9 5.1 4.9 5.2 5.0 5.0 5.3 5.5 5.5 5.4 5.2 5.2 5.3 5.5 5.7 5.7 5.6 5.5 5.4 5.5 5.5 5.6 5.6 5.5 5.3 5.3 5.2 5.2 5.0
6.6 6.3 6.3 6.2 6.1 6.1 6.3 6.5 5.9 5.3 5.3 5.6 5.4 5.3 5.6 5.2 5.1 5.0 5.0 4.9 5.1 5.1 5.2 5.1 5.3 5.2 5.6 5.7 5.7 5.6 5.5 5.5 5.7 5.8 5.7 5.6 5.6 5.7 5.6 5.5 5.4 5.5 5.4
6.1 6.0 5.9 5.8 5.9 5.8 5.9 6.0 6.0 5.6 5.5 5.4 5.3 5.2 5.5 5.2 5.0 5.1 5.2 4.9 4.9 5.0 5.2 5.1 5.3 5.4 5.7 5.9 5.9 5.8 5.8 5.7 5.9 5.8 5.9 5.9 6.0 6.1 5.9 5.6 5.4 5.1 5.0
6.1 5.6 5.5 5.8 5.7 5.9 5.9 5.8 5.9 6.0 5.3 5.3 5.4 5.3 4.9 4.9 5.1 4.7 5.1 5.1 4.7 4.8 4.8 5.0 5.2 5.5 5.6 5.2 5.3 5.6 5.8 6.1 6.2 6.0 6.1 6.1 6.2 6.2 6.2 6.1 5.9 5.6 5.5
5.8 5.8 5.6 5.8 5.6 5.8 5.8 5.9 6.0 5.9 5.8 5.5 5.2 5.1 5.1 4.8 4.8 4.8 4.8 4.8 4.6 5.0 5.0 4.8 4.8 5.1 5.4 5.5 5.7 5.8 6.1 6.3 6.4 6.4 6.3 6.4 6.3 6.2 6.1 6.0 5.8 5.7 5.7
5.6 5.7 5.5 5.7 5.5 5.5 5.4 5.5 5.7 5.8 5.5 5.5 5.1 5.0 5.1 4.9 4.8 5.0 5.2 5.0 5.2 4.9 4.9 4.9 4.8 5.3 5.5 5.5 5.8 6.0 6.3 6.3 6.3 6.2 6.1 6.1 6.0 6.0 5.8 5.8 5.7 5.7 5.6
5.4 5.3 5.4 5.6 5.9 5.7 5.7 5.7 5.5 5.6 5.6 5.5 5.5 5.2 5.0 5.2 5.0 5.3 5.4 5.5 5.5 5.5 5.3 5.0 5.3 5.5 5.6 5.8 5.9 5.9 6.1 6.2 6.1 6.2 6.4 6.0 5.9 6.0 5.8 5.7 5.6 5.6 5.6
5.5 5.5 5.8 5.6 5.5 5.6 5.5 5.3 5.5 5.0 5.4 5.3 5.5 5.5 5.6 5.4 5.2 5.4 5.8 5.7 5.4 5.3 5.5 5.2 5.3 5.5 5.8 5.9 5.8 5.9 6.0 6.1 6.1 6.0 5.7 5.5 5.5 5.6 5.5 5.4 5.2 5.2 5.1
5.4 5.2 4.9 4.8 4.8 4.8 4.8 4.8 4.8 4.9 4.4 5.0 5.0 4.3 4.1 5.1 5.2 5.3 4.7 5.5 5.3 5.2 5.4 5.3 5.3 5.5 5.6 5.6 5.7 5.8 5.9 5.7 5.6 5.5 5.4 5.4 5.3 5.3 5.3 5.3 5.3 5.3 5.4
5.7 5.3 5.1 5.2 5.0 4.8 4.7 4.6 4.8 4.6 4.4 4.9 4.7 4.0 4.6 5.3 5.5 5.2 5.1 5.2 5.2 5.2 5.3 5.3 5.2 5.5 5.4 5.3 5.3 5.3 5.3 5.3 5.4 5.5 5.5 5.4 5.5 5.6 5.6 5.5 5.4 5.5 5.4
6.1 5.7 5.4 5.3 5.2 5.3 5.6 5.6 5.4 5.1 4.9 4.6 4.8 4.7 4.9 5.2 5.1 5.4 5.2 5.2 5.1 5.2 4.9 4.7 4.8 4.8 5.1 5.3 5.2 5.1 5.1 5.3 5.3 5.4 5.5 5.5 5.4 5.4 5.4 5.5 5.6 5.6 5.7
6.2 6.1 6.0 5.8 5.7 5.6 5.5 5.5 5.7 5.4 5.3 5.7 5.5 5.5 5.8 5.6 5.7 5.5 5.3 5.3 5.3 5.4 5.3 5.3 5.3 5.3 5.2 5.2 5.4 5.4 5.3 5.3 5.3 5.4 5.5 5.7 5.6 5.5 5.4 5.4 5.4 5.3 5.3
6.2 6.2 6.3 6.2 6.1 6.1 5.8 5.7 5.7 5.7 5.7 5.7 5.9 6.0 5.9 5.8 5.8 5.8 5.6 5.7 5.6 5.5 5.4 5.5 5.8 6.0 6.1 6.1 6.2 5.9 5.6 5.6 5.6 5.5 5.5 5.4 5.2 5.2 5.3 5.2 5.1 5.1 5.1
6.1 6.0 6.1 6.1 5.8 6.0 6.0 5.9 5.7 5.7 5.7 5.7 5.7 5.8 5.8 5.8 5.6 5.6 5.8 5.8 5.8 6.1 6.3 6.3 6.3 6.3 6.1 6.0 5.9 6.0 5.8 5.6 5.5 5.5 5.5 5.5 5.6 5.6 5.4 5.3 5.1 5.0 5.1
6.6 6.3 6.2 6.1 5.8 5.8 6.0 5.9 5.7 5.6 5.5 5.6 5.7 5.6 5.5 5.6 5.9 6.1 6.2 6.1 6.1 6.2 6.2 6.3 6.3 6.2 6.0 5.6 5.6 5.6 5.8 5.7 5.5 5.5 5.4 5.3 5.3 5.3 5.2 5.2 5.1 5.1 5.2
6.5 6.4 6.1 6.2 6.1 5.6 5.8 6.1 5.9 5.7 5.7 5.8 5.5 5.6 5.9 5.8 5.7 5.5 5.7 5.9 5.9 6.2 6.1 6.1 6.4 6.6 6.4 6.2 6.0 5.5 5.4 5.6 5.4 5.3 5.3 5.2 5.3 5.4 5.5 5.4 5.5 5.6 5.6
Wind_Speed
7 6 6 6 6 6 5 6 6 4 4 4 6 6 6 6 5 4 4 2 0 2 1 1 1 1 2 3 3 3 3 3 2 2 1 3 5 6 14 14 11 9 7
4 6 6 6 6 6 6 6 6 6 5 7 5 6 5 4 6 6 5 3 4 4 4 3 4 1 2 2 3 3 2 2 2 2 2 3 4 2 3 4 10 13 7
6 2 5 6 6 7 6 6 6 6 6 6 6 5 5 6 4 4 6 6 5 5 5 6 6 1 3 2 1 2 2 2 3 3 2 2 2 3 3 4 4 5 9
5 3 4 7 8 7 7 7 6 6 6 6 6 7 6 5 4 3 4 4 3 3 1 2 4 1 2 3 3 0 2 2 3 2 1 1 1 3 3 3 4 2 3
6 3 3 5 6 7 7 7 6 6 6 6 6 6 4 4 2 2 3 3 6 4 5 4 6 6 5 4 3 2 1 2 2 2 1 2 1 2 1 2 2 3 3
3 4 1 4 6 6 6 6 6 6 6 5 6 5 5 4 3 1 1 4 6 7 6 5 4 5 6 6 4 4 4 3 0 0 1 1 2 2 1 3 3 3 3
5 5 7 7 4 2 3 2 6 6 5 3 5 5 6 4 2 2 3 3 3 5 6 6 4 3 4 5 6 10 11 9 3 1 1 2 2 1 2 2 2 1 2
8 7 6 3 5 5 3 4 3 3 3 4 5 6 4 1 4 1 3 4 6 6 5 5 6 5 3 3 6 6 6 5 3 2 3 5 5 6 3 2 2 3 2
9 5 2 4 6 5 3 2 2 5 7 7 6 7 5 6 11 2 7 5 6 7 4 5 6 6 6 7 7 6 5 6 10 10 13 13 16 14 2 1 3 3 2
7 5 4 5 5 5 5 6 6 8 8 7 8 8 10 9 13 14 6 6 7 5 5 6 7 7 8 7 6 5 6 3 5 6 7 13 18 18 23 11 3 3 2
6 5 5 5 5 5 7 7 8 9 9 10 8 10 10 9 12 16 14 1 7 5 4 4 3 6 8 7 7 5 2 1 5 6 6 7 7 9 12 15 14 4 3
6 6 6 6 5 5 8 7 6 8 9 4 8 7 5 5 13 14 16 12 8 5 3 3 3 8 9 8 6 7 11 7 5 5 6 6 5 5 6 11 17 14 15
7 7 6 6 7 7 7 5 5 5 5 4 4 5 4 4 4 13 13 11 9 3 2 1 3 11 13 12 16 16 12 6 6 7 6 5 3 4 10 9 15 12 16
8 7 6 7 7 7 5 5 4 3 4 4 3 3 3 2 3 3 3 3 8 6 6 10 12 14 16 10 9 10 6 7 6 5 4 3 4 7 8 6 6 8 4
6 5 7 4 6 7 6 4 4 3 1 3 3 3 2 2 2 2 4 2 2 2 4 7 8 8 7 6 6 6 6 6 7 6 6 6 7 7 7 7 7 5 6
5 4 4 3 3 5 5 4 8 7 9 11 8 4 3 6 3 3 4 4 1 3 5 7 7 7 7 5 5 6 6 9 6 6 6 6 7 7 7 7 7 6 6
3 3 3 4 4 3 1 4 5 4 10 10 10 10 8 4 2 4 9 13 12 9 9 7 6 6 5 5 6 6 6 6 5 7 7 7 6 6 6 6 6 6 6
2 5 3 3 3 2 1 3 1 3 5 2 5 5 6 7 10 10 13 10 7 8 6 7 6 5 5 5 5 5 5 5 6 5 5 5 5 5 5 5 6 5 5
4 3 4 3 4 5 4 1 1 3 0 5 3 3 3 7 12 15 13 6 6 5 5 6 5 5 5 5 4 4 4 5 5 5 5 5 5 5 5 5 5 10 10
3 5 4 4 3 3 4 4 5 3 1 0 1 4 4 2 3 3 4 5 6 4 4 5 4 4 4 4 4 4 4 5 5 5 4 4 4 4 4 4 4 5 5
3 3 3 0 2 2 4 4 5 5 5 5 5 5 6 4 4 3 5 5 5 5 5 5 4 4 4 4 4 4 4 4 4 4 3 3 3 3 3 3 3 4 4
4 3 3 3 2 1 3 2 3 5 7 6 4 4 9 3 5 5 5 5 4 8 11 10 5 7 9 7 5 4 4 4 3 3 2 3 3 3 3 3 5 7 7
4 4 3 3 4 4 2 4 4 4 4 5 5 4 4 4 5 5 6 6 9 11 16 15 11 9 11 10 9 10 6 4 6 5 3 2 2 2 2 3 3 4 5
5 4 4 5 4 4 4 4 3 4 5 5 5 5 4 4 6 8 8 8 11 13 17 17 16 15 14 13 12 12 12 11 9 6 5 4 2 1 2 2 3 6 6
5 4 3 2 3 3 3 3 3 3 4 4 5 5 5 4 3 5 7 11 12 12 14 17 19 20 20 20 18 16 14 13 10 7 7 5 3 2 2 3 4 4 7
5 5 4 4 3 3 4 4 3 2 2 4 4 3 2 3 5 6 5 7 8 11 14 17 20 23 22 22 22 19 19 18 15 12 8 6 3 2 3 3 6 4 7
Wind_Direction
191 191 189 197 203 203 195 184 198 204 179 189 194 191 194 203 184 168 155 172 347 293 341 360 321 145 57 37 56 23 33 53 80 319 309 337 346 22 348 4 27 22 317
193 179 209 208 200 206 213 199 191 187 201 196 202 211 213 216 190 176 187 169 196 249 276 282 271 249 133 108 71 55 29 60 109 62 298 340 32 34 280 29 23 29 348
112 81 226 209 203 214 215 219 200 179 183 201 200 187 193 193 188 214 200 197 206 229 238 228 237 240 169 177 142 106 68 41 55 61 322 317 321 18 352 341 2 360 351
128 125 274 223 204 211 210 210 210 200 189 191 185 182 187 163 138 141 205 217 209 230 243 1 87 281 185 177 144 151 35 43 63 60 356 325 4 330 11 343 346 320 318
162 158 296 287 233 221 199 202 211 203 210 203 196 205 167 135 103 149 213 221 222 132 79 69 56 39 31 150 146 154 112 57 43 38 352 1 322 330 320 300 288 310 318
176 203 196 332 303 226 216 198 197 195 210 201 214 159 134 97 13 360 169 208 211 162 137 116 108 57 36 13 105 140 140 147 111 129 271 260 264 255 312 337 335 353 344
72 36 24 35 351 12 308 210 186 201 169 166 121 118 100 93 13 343 298 207 173 135 146 130 84 26 49 72 81 81 69 54 55 167 229 235 282 169 315 315 306 259 257
88 49 39 50 32 11 43 9 320 248 148 113 100 92 111 13 331 304 208 109 92 86 94 109 117 94 40 94 99 97 68 39 8 329 257 269 254 270 226 226 259 292 310
100 117 86 83 58 39 55 302 42 97 101 100 101 89 76 38 13 338 149 115 98 90 97 95 97 76 13 79 96 96 64 19 10 28 60 70 58 59 85 67 22 50 339
103 102 93 91 100 78 63 63 67 85 91 89 92 74 63 48 21 28 106 125 113 111 92 82 75 99 66 59 84 100 80 18 6 15 25 29 36 37 37 37 28 50 5
76 78 61 59 74 69 85 79 82 84 87 95 88 73 59 38 23 40 33 106 129 117 101 86 60 61 73 68 80 64 79 4 38 56 46 37 33 35 29 28 31 42 35
88 71 69 48 32 58 86 89 84 104 105 79 90 79 56 38 37 30 48 38 56 94 86 69 38 23 40 58 71 74 71 81 69 62 54 39 28 12 5 17 22 49 57
98 93 69 66 61 47 64 63 94 104 110 102 78 77 59 33 31 34 33 32 40 65 68 69 49 65 60 59 48 49 51 50 60 60 48 34 16 352 14 20 21 27 57
101 95 81 81 72 60 59 57 68 59 102 114 101 101 105 86 47 41 61 360 10 27 17 79 80 87 76 60 47 41 48 53 55 55 36 18 15 27 34 19 23 5 37
83 87 92 77 81 83 57 38 92 81 39 130 114 127 90 27 85 27 336 46 68 13 340 73 78 74 68 59 54 49 52 46 48 38 35 37 35 28 28 19 30 26 39
112 105 107 110 113 118 108 79 50 60 66 67 72 108 71 71 1 17 301 345 118 179 75 76 74 74 73 67 64 67 53 54 42 49 46 43 37 31 27 23 24 30 25
114 118 122 115 116 80 20 129 120 41 58 53 67 75 78 138 233 247 104 70 65 82 90 86 77 72 73 64 60 64 61 50 52 50 46 41 33 37 34 27 17 15 12
112 119 119 133 114 92 178 126 130 160 128 92 51 66 32 21 19 102 103 78 64 57 84 86 87 79 71 71 68 69 58 51 60 59 56 43 36 41 34 27 18 9 357
171 189 168 161 160 174 152 107 333 120 180 136 123 38 12 49 51 61 67 93 98 85 84 88 93 89 82 73 67 73 85 77 72 61 50 46 32 32 27 20 18 10 1
230 250 219 202 223 212 180 166 184 182 130 180 176 184 155 54 86 97 84 91 92 88 84 93 91 94 98 94 81 77 73 67 69 66 57 39 25 27 12 1 5 358 344
208 230 205 209 250 217 164 177 190 169 175 197 195 203 187 141 143 149 132 129 128 123 124 125 123 119 114 114 103 93 99 97 86 80 67 49 30 18 347 350 346 337 320
209 208 183 200 193 223 247 234 162 173 190 188 203 210 172 182 162 153 149 150 153 150 156 152 155 155 146 141 135 122 125 127 110 94 79 60 44 19 5 339 5 359 351
204 224 240 235 219 211 265 243 207 205 195 187 181 176 192 181 157 158 168 163 167 168 166 157 155 157 151 148 148 150 151 168 165 143 133 98 54 35 352 358 330 332 339
189 212 237 226 213 205 205 206 225 161 176 191 179 189 211 187 177 176 174 173 179 178 172 167 172 174 174 174 173 174 170 170 173 169 161 155 146 348 310 309 315 322 314
171 152 100 266 199 192 209 219 239 193 168 180 191 185 206 192 209 196 181 184 184 178 182 181 184 190 191 186 187 189 190 188 187 182 174 175 182 256 274 275 281 300 318
185 179 199 145 179 181 136 109 118 57 230 161 188 170 234 229 185 190 197 192 189 188 186 191 196 202 203 199 205 203 198 194 194 191 187 193 198 235 265 284 302 308 305